Time,TemperatureF,DewpointF,PressureIn,WindDirection,WindDirectionDegrees,WindSpeedMPH,WindSpeedGustMPH,Humidity,HourlyPrecipIn,Conditions,Clouds,dailyrainin,SoftwareType,DateUTC
2013-01-01 00:01:00,19.1,18.1,30.61,NW,314,0.0,0.0,96,0.00,,,0.00,Wunderground v.1.15,2013-01-01 08:01:00,
2013-01-01 00:06:00,18.9,17.9,30.61,NW,314,0.0,0.0,96,0.00,,,0.00,Wunderground v.1.15,2013-01-01 08:06:00,
2013-01-01 00:11:00,18.8,17.8,30.61,NW,314,0.0,0.0,96,0.00,,,0.00,Wunderground v.1.15,2013-01-01 08:11:00,
2013-01-01 00:18:00,18.3,17.1,30.61,NW,314,0.0,0.0,95,0.00,,,0.00,Wunderground v.1.15,2013-01-01 08:18:00,
2013-01-01 00:23:00,17.8,16.4,30.61,NW,314,0.0,0.0,94,0.00,,,0.00,Wunderground v.1.15,2013-01-01 08:23:00,
2013-01-01 00:29:00,17.7,16.5,30.61,NW,314,0.0,0.0,95,0.00,,,0.00,Wunderground v.1.15,2013-01-01 08:29:00,
2013-01-01 00:34:00,19.1,18.4,30.60,NW,313,0.0,0.0,97,0.00,,,0.00,Wunderground v.1.15,2013-01-01 08:34:00,
2013-01-01 00:40:00,19.4,18.4,30.60,NW,313,0.0,0.0,96,0.00,,,0.00,Wunderground v.1.15,2013-01-01 08:40:00,
2013-01-01 00:45:00,18.4,17.2,30.60,SE,134,3.0,4.0,95,0.00,,,0.00,Wunderground v.1.15,2013-01-01 08:45:00,
2013-01-01 00:51:00,17.5,16.1,30.60,SSE,148,4.0,6.0,94,0.00,,,0.00,Wunderground v.1.15,2013-01-01 08:51:00,
2013-01-01 00:56:00,17.1,15.9,30.60,SSE,152,3.0,6.0,95,0.00,,,0.00,Wunderground v.1.15,2013-01-01 08:56:00,
2013-01-01 01:03:00,16.4,15.0,30.60,SSE,163,4.0,5.0,94,0.00,,,0.00,Wunderground v.1.15,2013-01-01 09:03:00,
2013-01-01 01:08:00,16.0,14.6,30.60,SSE,163,4.0,5.0,94,0.00,,,0.00,Wunderground v.1.15,2013-01-01 09:08:00,
2013-01-01 01:14:00,15.6,14.2,30.60,SSE,163,2.0,3.0,94,0.00,,,0.00,Wunderground v.1.15,2013-01-01 09:14:00,
2013-01-01 01:19:00,15.5,14.1,30.60,SSE,163,2.0,2.0,94,0.00,,,0.00,Wunderground v.1.15,2013-01-01 09:19:00,
2013-01-01 01:25:00,15.7,14.3,30.60,SSE,163,1.0,4.0,94,0.00,,,0.00,Wunderground v.1.15,2013-01-01 09:25:00,
2013-01-01 01:31:00,15.7,14.3,30.61,SSE,163,0.0,2.0,94,0.00,,,0.00,Wunderground v.1.15,2013-01-01 09:31:00,
2013-01-01 01:36:00,15.5,14.1,30.61,SSE,163,0.0,2.0,94,0.00,,,0.00,Wunderground v.1.15,2013-01-01 09:36:00,
2013-01-01 01:43:00,15.2,13.5,30.61,SSE,163,0.0,0.0,93,0.00,,,0.00,Wunderground v.1.15,2013-01-01 09:43:00,
2013-01-01 01:48:00,15.0,13.6,30.61,SSE,163,0.0,0.0,94,0.00,,,0.00,Wunderground v.1.15,2013-01-01 09:48:00,
2013-01-01 01:54:00,15.3,13.9,30.62,SSE,163,0.0,0.0,94,0.00,,,0.00,Wunderground v.1.15,2013-01-01 09:54:00,
2013-01-01 01:59:00,15.6,14.2,30.63,SSE,163,0.0,0.0,94,0.00,,,0.00,Wunderground v.1.15,2013-01-01 09:59:00,
2013-01-01 02:04:00,16.0,14.8,30.63,SW,219,0.0,0.0,95,0.00,,,0.00,Wunderground v.1.15,2013-01-01 10:04:00,
2013-01-01 02:10:00,16.3,15.1,30.63,SW,220,0.0,0.0,95,0.00,,,0.00,Wunderground v.1.15,2013-01-01 10:10:00,
2013-01-01 02:15:00,16.6,15.4,30.64,SW,228,0.0,0.0,95,0.00,,,0.00,Wunderground v.1.15,2013-01-01 10:15:00,
2013-01-01 02:20:00,16.8,15.6,30.64,SW,227,0.0,0.0,95,0.00,,,0.00,Wunderground v.1.15,2013-01-01 10:20:00,
2013-01-01 02:25:00,16.9,15.7,30.64,SW,225,0.0,0.0,95,0.00,,,0.00,Wunderground v.1.15,2013-01-01 10:25:00,
2013-01-01 02:30:00,16.9,15.7,30.64,SW,225,0.0,0.0,95,0.00,,,0.00,Wunderground v.1.15,2013-01-01 10:30:00,
2013-01-01 02:35:00,16.9,15.7,30.65,SW,225,0.0,0.0,95,0.00,,,0.00,Wunderground v.1.15,2013-01-01 10:35:00,
2013-01-01 02:40:00,16.8,15.6,30.65,SW,225,0.0,0.0,95,0.00,,,0.00,Wunderground v.1.15,2013-01-01 10:40:00,
2013-01-01 02:45:00,16.8,15.4,30.66,SW,225,0.0,0.0,94,0.00,,,0.00,Wunderground v.1.15,2013-01-01 10:45:00,
2013-01-01 02:50:00,16.9,15.7,30.65,SW,225,0.0,0.0,95,0.00,,,0.00,Wunderground v.1.15,2013-01-01 10:50:00,
2013-01-01 02:55:00,16.9,15.7,30.65,SW,225,0.0,0.0,95,0.00,,,0.00,Wunderground v.1.15,2013-01-01 10:55:00,
2013-01-01 03:00:00,16.9,15.7,30.65,SW,224,0.0,0.0,95,0.00,,,0.00,Wunderground v.1.15,2013-01-01 11:00:00,
2013-01-01 03:05:00,16.9,15.7,30.65,SW,224,0.0,0.0,95,0.00,,,0.00,Wunderground v.1.15,2013-01-01 11:05:00,
2013-01-01 03:10:00,17.0,15.8,30.65,SW,224,0.0,0.0,95,0.00,,,0.00,Wunderground v.1.15,2013-01-01 11:10:00,
2013-01-01 03:15:00,17.1,15.9,30.65,SW,224,0.0,0.0,95,0.00,,,0.00,Wunderground v.1.15,2013-01-01 11:15:00,
2013-01-01 03:20:00,17.2,16.0,30.66,SW,224,0.0,0.0,95,0.00,,,0.00,Wunderground v.1.15,2013-01-01 11:20:00,
2013-01-01 03:25:00,17.3,16.1,30.65,SW,224,0.0,0.0,95,0.00,,,0.00,Wunderground v.1.15,2013-01-01 11:25:00,
2013-01-01 03:30:00,17.3,16.1,30.66,SW,224,0.0,0.0,95,0.00,,,0.00,Wunderground v.1.15,2013-01-01 11:30:00,
2013-01-01 03:35:00,17.4,16.2,30.66,SW,224,0.0,0.0,95,0.00,,,0.00,Wunderground v.1.15,2013-01-01 11:35:00,
2013-01-01 03:40:00,17.5,16.3,30.66,SW,224,0.0,0.0,95,0.00,,,0.00,Wunderground v.1.15,2013-01-01 11:40:00,
2013-01-01 03:45:00,17.7,16.5,30.66,SW,224,0.0,0.0,95,0.00,,,0.00,Wunderground v.1.15,2013-01-01 11:45:00,
2013-01-01 03:50:00,17.8,16.6,30.67,SW,224,0.0,0.0,95,0.00,,,0.00,Wunderground v.1.15,2013-01-01 11:50:00,
2013-01-01 03:55:00,17.8,16.6,30.67,SW,224,0.0,0.0,95,0.00,,,0.00,Wunderground v.1.15,2013-01-01 11:55:00,
2013-01-01 04:00:00,17.9,16.7,30.68,SW,224,0.0,0.0,95,0.00,,,0.00,Wunderground v.1.15,2013-01-01 12:00:00,
2013-01-01 04:05:00,18.0,16.8,30.67,SW,224,0.0,0.0,95,0.00,,,0.00,Wunderground v.1.15,2013-01-01 12:05:00,
2013-01-01 04:10:00,18.1,16.9,30.67,SW,223,0.0,0.0,95,0.00,,,0.00,Wunderground v.1.15,2013-01-01 12:10:00,
2013-01-01 04:15:00,18.2,17.0,30.67,SW,223,0.0,0.0,95,0.00,,,0.00,Wunderground v.1.15,2013-01-01 12:15:00,
2013-01-01 04:20:00,18.2,17.0,30.68,SW,223,0.0,0.0,95,0.00,,,0.00,Wunderground v.1.15,2013-01-01 12:20:00,
2013-01-01 04:25:00,18.3,17.1,30.68,SW,223,0.0,0.0,95,0.00,,,0.00,Wunderground v.1.15,2013-01-01 12:25:00,
2013-01-01 04:30:00,18.3,17.1,30.68,SW,223,0.0,0.0,95,0.00,,,0.00,Wunderground v.1.15,2013-01-01 12:30:00,
2013-01-01 04:36:00,18.4,17.2,30.68,SW,223,0.0,0.0,95,0.00,,,0.00,Wunderground v.1.15,2013-01-01 12:36:00,
2013-01-01 04:41:00,18.4,17.2,30.68,SW,223,0.0,0.0,95,0.00,,,0.00,Wunderground v.1.15,2013-01-01 12:41:00,
2013-01-01 04:46:00,18.4,17.2,30.68,SW,223,0.0,0.0,95,0.00,,,0.00,Wunderground v.1.15,2013-01-01 12:46:00,
2013-01-01 04:51:00,18.4,17.2,30.68,SW,223,0.0,0.0,95,0.00,,,0.00,Wunderground v.1.15,2013-01-01 12:51:00,
2013-01-01 04:56:00,18.4,17.2,30.68,SW,223,0.0,0.0,95,0.00,,,0.00,Wunderground v.1.15,2013-01-01 12:56:00,
2013-01-01 05:01:00,18.4,17.2,30.68,SW,223,0.0,0.0,95,0.00,,,0.00,Wunderground v.1.15,2013-01-01 13:01:00,
2013-01-01 05:06:00,18.4,17.2,30.68,SW,223,0.0,0.0,95,0.00,,,0.00,Wunderground v.1.15,2013-01-01 13:06:00,
2013-01-01 05:11:00,18.4,17.2,30.67,SW,223,0.0,0.0,95,0.00,,,0.00,Wunderground v.1.15,2013-01-01 13:11:00,
2013-01-01 05:16:00,18.4,17.2,30.68,SW,223,0.0,0.0,95,0.00,,,0.00,Wunderground v.1.15,2013-01-01 13:16:00,
2013-01-01 05:21:00,18.5,17.3,30.68,SW,223,0.0,0.0,95,0.00,,,0.00,Wunderground v.1.15,2013-01-01 13:21:00,
2013-01-01 05:26:00,18.5,17.3,30.68,SW,223,0.0,0.0,95,0.00,,,0.00,Wunderground v.1.15,2013-01-01 13:26:00,
2013-01-01 05:31:00,18.5,17.3,30.68,SW,223,0.0,0.0,95,0.00,,,0.00,Wunderground v.1.15,2013-01-01 13:31:00,
2013-01-01 05:36:00,18.5,17.3,30.68,SW,223,0.0,0.0,95,0.00,,,0.00,Wunderground v.1.15,2013-01-01 13:36:00,
2013-01-01 05:41:00,18.5,17.3,30.68,SW,223,0.0,0.0,95,0.00,,,0.00,Wunderground v.1.15,2013-01-01 13:41:00,
2013-01-01 05:46:00,18.5,17.3,30.69,SW,223,0.0,0.0,95,0.00,,,0.00,Wunderground v.1.15,2013-01-01 13:46:00,
2013-01-01 05:51:00,18.5,17.3,30.69,SW,223,0.0,0.0,95,0.00,,,0.00,Wunderground v.1.15,2013-01-01 13:51:00,
2013-01-01 05:56:00,18.5,17.3,30.68,SW,223,0.0,0.0,95,0.00,,,0.00,Wunderground v.1.15,2013-01-01 13:56:00,
2013-01-01 06:01:00,18.5,17.3,30.68,SW,223,0.0,0.0,95,0.00,,,0.00,Wunderground v.1.15,2013-01-01 14:01:00,
2013-01-01 06:06:00,18.5,17.3,30.68,SW,223,0.0,0.0,95,0.00,,,0.00,Wunderground v.1.15,2013-01-01 14:06:00,
2013-01-01 06:11:00,18.5,17.3,30.68,SW,223,0.0,0.0,95,0.00,,,0.00,Wunderground v.1.15,2013-01-01 14:11:00,
2013-01-01 06:16:00,18.3,16.9,30.68,SW,223,0.0,0.0,94,0.00,,,0.00,Wunderground v.1.15,2013-01-01 14:16:00,
2013-01-01 06:21:00,18.2,17.0,30.68,SW,223,0.0,0.0,95,0.00,,,0.00,Wunderground v.1.15,2013-01-01 14:21:00,
2013-01-01 06:26:00,18.3,17.1,30.68,SW,223,0.0,0.0,95,0.00,,,0.00,Wunderground v.1.15,2013-01-01 14:26:00,
2013-01-01 06:31:00,18.3,17.1,30.68,SW,223,0.0,0.0,95,0.00,,,0.00,Wunderground v.1.15,2013-01-01 14:31:00,
2013-01-01 06:36:00,18.3,17.1,30.68,SW,223,0.0,0.0,95,0.00,,,0.00,Wunderground v.1.15,2013-01-01 14:36:00,
2013-01-01 06:41:00,18.3,17.1,30.68,SW,223,0.0,0.0,95,0.00,,,0.00,Wunderground v.1.15,2013-01-01 14:41:00,
2013-01-01 06:46:00,18.3,17.1,30.68,SW,223,0.0,0.0,95,0.00,,,0.00,Wunderground v.1.15,2013-01-01 14:46:00,
2013-01-01 06:51:00,18.3,17.1,30.69,SW,223,0.0,0.0,95,0.00,,,0.00,Wunderground v.1.15,2013-01-01 14:51:00,
2013-01-01 06:56:00,18.3,17.1,30.69,SW,223,0.0,0.0,95,0.00,,,0.00,Wunderground v.1.15,2013-01-01 14:56:00,
2013-01-01 07:01:00,18.4,17.2,30.69,SW,223,0.0,0.0,95,0.00,,,0.00,Wunderground v.1.15,2013-01-01 15:01:00,
2013-01-01 07:06:00,18.5,17.3,30.69,SW,223,0.0,0.0,95,0.00,,,0.00,Wunderground v.1.15,2013-01-01 15:06:00,
2013-01-01 07:11:00,18.5,17.3,30.69,SW,223,0.0,0.0,95,0.00,,,0.00,Wunderground v.1.15,2013-01-01 15:11:00,
2013-01-01 07:17:00,18.5,17.3,30.69,SW,223,0.0,0.0,95,0.00,,,0.00,Wunderground v.1.15,2013-01-01 15:17:00,
2013-01-01 07:22:00,18.6,17.4,30.69,SW,223,0.0,0.0,95,0.00,,,0.00,Wunderground v.1.15,2013-01-01 15:22:00,
2013-01-01 07:27:00,18.7,17.5,30.69,SW,223,0.0,0.0,95,0.00,,,0.00,Wunderground v.1.15,2013-01-01 15:27:00,
2013-01-01 07:32:00,18.8,17.6,30.69,SW,223,0.0,0.0,95,0.00,,,0.00,Wunderground v.1.15,2013-01-01 15:32:00,
2013-01-01 07:37:00,18.9,17.7,30.69,SW,223,0.0,0.0,95,0.00,,,0.00,Wunderground v.1.15,2013-01-01 15:37:00,
2013-01-01 07:42:00,18.9,17.7,30.69,SW,223,0.0,0.0,95,0.00,,,0.00,Wunderground v.1.15,2013-01-01 15:42:00,
2013-01-01 07:47:00,18.9,17.7,30.70,SW,223,0.0,0.0,95,0.00,,,0.00,Wunderground v.1.15,2013-01-01 15:47:00,
2013-01-01 07:52:00,19.0,17.8,30.70,SW,223,0.0,0.0,95,0.00,,,0.00,Wunderground v.1.15,2013-01-01 15:52:00,
2013-01-01 07:57:00,19.0,17.8,30.70,SW,223,0.0,0.0,95,0.00,,,0.00,Wunderground v.1.15,2013-01-01 15:57:00,
2013-01-01 08:02:00,19.1,17.9,30.71,SW,223,0.0,0.0,95,0.00,,,0.00,Wunderground v.1.15,2013-01-01 16:02:00,
2013-01-01 08:08:00,19.1,17.9,30.71,SW,223,0.0,0.0,95,0.00,,,0.00,Wunderground v.1.15,2013-01-01 16:08:00,
2013-01-01 08:13:00,19.1,17.9,30.72,SW,223,0.0,0.0,95,0.00,,,0.00,Wunderground v.1.15,2013-01-01 16:13:00,
2013-01-01 08:18:00,19.2,18.0,30.72,SW,223,0.0,0.0,95,0.00,,,0.00,Wunderground v.1.15,2013-01-01 16:18:00,
2013-01-01 08:23:00,19.2,18.0,30.72,SW,223,0.0,0.0,95,0.00,,,0.00,Wunderground v.1.15,2013-01-01 16:23:00,
2013-01-01 08:29:00,19.3,18.1,30.72,SW,223,0.0,0.0,95,0.00,,,0.00,Wunderground v.1.15,2013-01-01 16:29:00,
2013-01-01 08:34:00,19.3,18.1,30.71,SW,223,0.0,0.0,95,0.00,,,0.00,Wunderground v.1.15,2013-01-01 16:34:00,
2013-01-01 08:39:00,19.4,18.2,30.72,SW,223,0.0,0.0,95,0.00,,,0.00,Wunderground v.1.15,2013-01-01 16:39:00,
2013-01-01 08:44:00,19.5,18.3,30.72,SW,223,0.0,0.0,95,0.00,,,0.00,Wunderground v.1.15,2013-01-01 16:44:00,
2013-01-01 08:49:00,19.7,18.5,30.72,SW,223,0.0,0.0,95,0.00,,,0.00,Wunderground v.1.15,2013-01-01 16:49:00,
2013-01-01 08:54:00,19.8,18.8,30.72,SW,223,0.0,0.0,96,0.00,,,0.00,Wunderground v.1.15,2013-01-01 16:54:00,
2013-01-01 08:59:00,19.8,18.8,30.73,SW,223,0.0,0.0,96,0.00,,,0.00,Wunderground v.1.15,2013-01-01 16:59:00,
2013-01-01 09:04:00,19.9,18.7,30.73,SW,223,0.0,0.0,95,0.00,,,0.00,Wunderground v.1.15,2013-01-01 17:04:00,
2013-01-01 09:09:00,20.0,18.8,30.73,SW,223,0.0,0.0,95,0.00,,,0.00,Wunderground v.1.15,2013-01-01 17:09:00,
2013-01-01 09:14:00,20.1,18.9,30.74,SW,223,0.0,0.0,95,0.00,,,0.00,Wunderground v.1.15,2013-01-01 17:14:00,
2013-01-01 09:19:00,20.2,19.0,30.74,SW,223,0.0,0.0,95,0.00,,,0.00,Wunderground v.1.15,2013-01-01 17:19:00,
2013-01-01 09:24:00,20.3,19.1,30.74,SW,223,0.0,0.0,95,0.00,,,0.00,Wunderground v.1.15,2013-01-01 17:24:00,
2013-01-01 09:29:00,20.3,19.3,30.74,SW,223,0.0,0.0,96,0.00,,,0.00,Wunderground v.1.15,2013-01-01 17:29:00,
2013-01-01 09:34:00,20.4,19.4,30.74,SW,223,0.0,0.0,96,0.00,,,0.00,Wunderground v.1.15,2013-01-01 17:34:00,
2013-01-01 09:39:00,20.5,19.5,30.74,SW,223,0.0,0.0,96,0.00,,,0.00,Wunderground v.1.15,2013-01-01 17:39:00,
2013-01-01 09:44:00,20.6,19.4,30.74,SW,223,0.0,0.0,95,0.00,,,0.00,Wunderground v.1.15,2013-01-01 17:44:00,
2013-01-01 09:49:00,20.6,19.4,30.75,SW,223,0.0,0.0,95,0.00,,,0.00,Wunderground v.1.15,2013-01-01 17:49:00,
2013-01-01 09:54:00,20.7,19.5,30.75,SW,223,0.0,0.0,95,0.00,,,0.00,Wunderground v.1.15,2013-01-01 17:54:00,
2013-01-01 09:59:00,20.8,19.8,30.75,SW,223,0.0,0.0,96,0.00,,,0.00,Wunderground v.1.15,2013-01-01 17:59:00,
2013-01-01 10:04:00,21.0,20.0,30.75,SW,223,0.0,0.0,96,0.00,,,0.00,Wunderground v.1.15,2013-01-01 18:04:00,
2013-01-01 10:09:00,21.1,20.1,30.75,SW,223,0.0,0.0,96,0.00,,,0.00,Wunderground v.1.15,2013-01-01 18:09:00,
2013-01-01 10:14:00,21.2,20.2,30.75,SW,223,0.0,0.0,96,0.00,,,0.00,Wunderground v.1.15,2013-01-01 18:14:00,
2013-01-01 10:19:00,21.1,20.1,30.75,SW,223,0.0,0.0,96,0.00,,,0.00,Wunderground v.1.15,2013-01-01 18:19:00,
2013-01-01 10:24:00,21.2,20.2,30.75,SW,223,0.0,0.0,96,0.00,,,0.00,Wunderground v.1.15,2013-01-01 18:24:00,
2013-01-01 10:29:00,21.3,20.3,30.75,SW,223,0.0,0.0,96,0.00,,,0.00,Wunderground v.1.15,2013-01-01 18:29:00,
2013-01-01 10:34:00,21.4,20.4,30.75,SW,223,0.0,0.0,96,0.00,,,0.00,Wunderground v.1.15,2013-01-01 18:34:00,
2013-01-01 10:39:00,21.4,20.4,30.75,SW,223,0.0,0.0,96,0.00,,,0.00,Wunderground v.1.15,2013-01-01 18:39:00,
2013-01-01 10:44:00,21.5,20.5,30.75,SW,223,0.0,0.0,96,0.00,,,0.00,Wunderground v.1.15,2013-01-01 18:44:00,
2013-01-01 10:49:00,21.5,20.5,30.75,SW,223,0.0,0.0,96,0.00,,,0.00,Wunderground v.1.15,2013-01-01 18:49:00,
2013-01-01 10:54:00,21.5,20.5,30.75,SW,223,0.0,0.0,96,0.00,,,0.00,Wunderground v.1.15,2013-01-01 18:54:00,
2013-01-01 10:59:00,21.5,20.3,30.75,SW,232,0.0,0.0,95,0.00,,,0.00,Wunderground v.1.15,2013-01-01 18:59:00,
2013-01-01 11:04:00,21.6,20.6,30.76,West,259,0.0,0.0,96,0.00,,,0.00,Wunderground v.1.15,2013-01-01 19:04:00,
2013-01-01 11:09:00,21.6,20.6,30.76,WSW,252,0.0,0.0,96,0.00,,,0.00,Wunderground v.1.15,2013-01-01 19:09:00,
2013-01-01 11:14:00,21.7,20.7,30.76,WSW,242,0.0,0.0,96,0.00,,,0.00,Wunderground v.1.15,2013-01-01 19:14:00,
2013-01-01 11:19:00,21.8,20.8,30.76,WSW,242,0.0,0.0,96,0.00,,,0.00,Wunderground v.1.15,2013-01-01 19:19:00,
2013-01-01 11:24:00,21.8,20.8,30.75,WSW,242,0.0,0.0,96,0.00,,,0.00,Wunderground v.1.15,2013-01-01 19:24:00,
2013-01-01 11:29:00,21.9,20.9,30.75,WSW,242,0.0,0.0,96,0.00,,,0.00,Wunderground v.1.15,2013-01-01 19:29:00,
2013-01-01 11:34:00,21.9,20.9,30.75,WSW,242,0.0,0.0,96,0.00,,,0.00,Wunderground v.1.15,2013-01-01 19:34:00,
2013-01-01 11:39:00,22.0,21.0,30.75,WSW,242,0.0,0.0,96,0.00,,,0.00,Wunderground v.1.15,2013-01-01 19:39:00,
2013-01-01 11:44:00,22.0,21.0,30.75,WSW,242,0.0,0.0,96,0.00,,,0.00,Wunderground v.1.15,2013-01-01 19:44:00,
2013-01-01 11:49:00,22.1,21.1,30.75,WSW,242,0.0,0.0,96,0.00,,,0.00,Wunderground v.1.15,2013-01-01 19:49:00,
2013-01-01 11:54:00,22.0,21.0,30.75,WSW,242,0.0,0.0,96,0.00,,,0.00,Wunderground v.1.15,2013-01-01 19:54:00,
2013-01-01 11:59:00,22.1,21.1,30.75,WSW,242,0.0,0.0,96,0.00,,,0.00,Wunderground v.1.15,2013-01-01 19:59:00,
2013-01-01 12:04:00,22.1,21.1,30.75,WSW,242,0.0,0.0,96,0.00,,,0.00,Wunderground v.1.15,2013-01-01 20:04:00,
2013-01-01 12:09:00,22.2,21.2,30.74,WSW,242,0.0,0.0,96,0.00,,,0.00,Wunderground v.1.15,2013-01-01 20:09:00,
2013-01-01 12:15:00,22.1,21.1,30.75,WSW,242,0.0,0.0,96,0.00,,,0.00,Wunderground v.1.15,2013-01-01 20:15:00,
2013-01-01 12:20:00,22.1,20.9,30.75,WSW,242,0.0,0.0,95,0.00,,,0.00,Wunderground v.1.15,2013-01-01 20:20:00,
2013-01-01 12:25:00,22.2,21.2,30.75,WSW,242,0.0,0.0,96,0.00,,,0.00,Wunderground v.1.15,2013-01-01 20:25:00,
2013-01-01 12:30:00,22.3,21.3,30.74,WSW,242,0.0,0.0,96,0.00,,,0.00,Wunderground v.1.15,2013-01-01 20:30:00,
2013-01-01 12:35:00,22.3,21.3,30.75,WSW,242,0.0,0.0,96,0.00,,,0.00,Wunderground v.1.15,2013-01-01 20:35:00,
2013-01-01 12:40:00,22.3,21.3,30.75,WSW,242,0.0,0.0,96,0.00,,,0.00,Wunderground v.1.15,2013-01-01 20:40:00,
2013-01-01 12:45:00,22.4,21.4,30.75,WSW,242,0.0,0.0,96,0.00,,,0.00,Wunderground v.1.15,2013-01-01 20:45:00,
2013-01-01 12:50:00,22.4,21.4,30.75,WSW,242,0.0,0.0,96,0.00,,,0.00,Wunderground v.1.15,2013-01-01 20:50:00,
2013-01-01 12:55:00,22.4,21.4,30.75,WSW,242,0.0,0.0,96,0.00,,,0.00,Wunderground v.1.15,2013-01-01 20:55:00,
2013-01-01 13:00:00,22.4,21.4,30.75,WSW,242,0.0,0.0,96,0.00,,,0.00,Wunderground v.1.15,2013-01-01 21:00:00,
2013-01-01 13:05:00,22.4,21.4,30.75,WSW,242,0.0,0.0,96,0.00,,,0.00,Wunderground v.1.15,2013-01-01 21:05:00,
2013-01-01 13:10:00,22.3,21.3,30.75,WSW,242,0.0,0.0,96,0.00,,,0.00,Wunderground v.1.15,2013-01-01 21:10:00,
2013-01-01 13:15:00,22.3,21.1,30.75,WSW,242,0.0,0.0,95,0.00,,,0.00,Wunderground v.1.15,2013-01-01 21:15:00,
2013-01-01 13:20:00,22.1,20.9,30.75,WSW,242,0.0,0.0,95,0.00,,,0.00,Wunderground v.1.15,2013-01-01 21:20:00,
2013-01-01 13:25:00,22.1,21.1,30.75,WSW,242,0.0,0.0,96,0.00,,,0.00,Wunderground v.1.15,2013-01-01 21:25:00,
2013-01-01 13:30:00,22.1,21.1,30.75,WSW,242,0.0,0.0,96,0.00,,,0.00,Wunderground v.1.15,2013-01-01 21:30:00,
2013-01-01 13:35:00,22.1,21.1,30.75,WSW,242,0.0,0.0,96,0.00,,,0.00,Wunderground v.1.15,2013-01-01 21:35:00,
2013-01-01 13:40:00,22.2,21.2,30.75,WSW,242,0.0,0.0,96,0.00,,,0.00,Wunderground v.1.15,2013-01-01 21:40:00,
2013-01-01 13:45:00,22.2,21.2,30.75,WSW,242,0.0,0.0,96,0.00,,,0.00,Wunderground v.1.15,2013-01-01 21:45:00,
2013-01-01 13:50:00,22.2,21.2,30.75,WSW,242,0.0,0.0,96,0.00,,,0.00,Wunderground v.1.15,2013-01-01 21:50:00,
2013-01-01 13:55:00,22.1,20.9,30.75,WSW,242,0.0,0.0,95,0.00,,,0.00,Wunderground v.1.15,2013-01-01 21:55:00,
2013-01-01 14:00:00,22.1,21.1,30.75,WSW,242,0.0,0.0,96,0.00,,,0.00,Wunderground v.1.15,2013-01-01 22:00:00,
2013-01-01 14:05:00,22.1,20.9,30.75,SSW,213,0.0,0.0,95,0.00,,,0.00,Wunderground v.1.15,2013-01-01 22:05:00,
2013-01-01 14:10:00,22.0,20.5,30.75,SSW,213,0.0,0.0,94,0.00,,,0.00,Wunderground v.1.15,2013-01-01 22:10:00,
2013-01-01 14:15:00,22.0,20.5,30.75,SSW,213,0.0,0.0,94,0.00,,,0.00,Wunderground v.1.15,2013-01-01 22:15:00,
2013-01-01 14:20:00,22.0,20.8,30.75,SSW,213,0.0,0.0,95,0.00,,,0.00,Wunderground v.1.15,2013-01-01 22:20:00,
2013-01-01 14:25:00,22.0,20.8,30.74,SSW,213,0.0,0.0,95,0.00,,,0.00,Wunderground v.1.15,2013-01-01 22:25:00,
2013-01-01 14:30:00,22.0,20.8,30.75,SSW,213,0.0,0.0,95,0.00,,,0.00,Wunderground v.1.15,2013-01-01 22:30:00,
2013-01-01 14:35:00,22.0,20.8,30.75,SSW,213,0.0,0.0,95,0.00,,,0.00,Wunderground v.1.15,2013-01-01 22:35:00,
2013-01-01 14:40:00,22.0,20.8,30.75,SSW,213,0.0,0.0,95,0.00,,,0.00,Wunderground v.1.15,2013-01-01 22:40:00,
2013-01-01 14:45:00,22.0,20.8,30.75,SSW,213,0.0,0.0,95,0.00,,,0.00,Wunderground v.1.15,2013-01-01 22:45:00,
2013-01-01 14:50:00,21.9,20.7,30.75,SSW,213,0.0,0.0,95,0.00,,,0.00,Wunderground v.1.15,2013-01-01 22:50:00,
2013-01-01 14:55:00,21.9,20.9,30.75,SSW,213,0.0,0.0,96,0.00,,,0.00,Wunderground v.1.15,2013-01-01 22:55:00,
2013-01-01 15:00:00,21.9,20.9,30.75,SSW,213,0.0,0.0,96,0.00,,,0.00,Wunderground v.1.15,2013-01-01 23:00:00,
2013-01-01 15:05:00,21.9,20.9,30.75,SSW,213,0.0,0.0,96,0.00,,,0.00,Wunderground v.1.15,2013-01-01 23:05:00,
2013-01-01 15:10:00,21.9,20.9,30.75,SSW,213,0.0,0.0,96,0.00,,,0.00,Wunderground v.1.15,2013-01-01 23:10:00,
2013-01-01 15:16:00,21.9,20.9,30.75,SSW,213,0.0,0.0,96,0.00,,,0.00,Wunderground v.1.15,2013-01-01 23:16:00,
2013-01-01 15:21:00,21.8,20.6,30.75,SSW,213,0.0,0.0,95,0.00,,,0.00,Wunderground v.1.15,2013-01-01 23:21:00,
2013-01-01 15:26:00,21.8,20.6,30.75,SSW,213,0.0,0.0,95,0.00,,,0.00,Wunderground v.1.15,2013-01-01 23:26:00,
2013-01-01 15:31:00,21.8,20.8,30.75,SSW,213,0.0,0.0,96,0.00,,,0.00,Wunderground v.1.15,2013-01-01 23:31:00,
2013-01-01 15:36:00,21.8,20.8,30.75,SSW,213,0.0,0.0,96,0.00,,,0.00,Wunderground v.1.15,2013-01-01 23:36:00,
2013-01-01 15:41:00,21.7,20.5,30.75,SSW,213,0.0,0.0,95,0.00,,,0.00,Wunderground v.1.15,2013-01-01 23:41:00,
2013-01-01 15:46:00,21.7,20.5,30.75,SSW,213,0.0,0.0,95,0.00,,,0.00,Wunderground v.1.15,2013-01-01 23:46:00,
2013-01-01 15:51:00,21.7,20.7,30.76,SSW,213,0.0,0.0,96,0.00,,,0.00,Wunderground v.1.15,2013-01-01 23:51:00,
2013-01-01 15:56:00,21.7,20.7,30.75,SSW,213,0.0,0.0,96,0.00,,,0.00,Wunderground v.1.15,2013-01-01 23:56:00,
2013-01-01 16:01:00,21.6,20.6,30.76,SSW,213,0.0,0.0,96,0.00,,,0.00,Wunderground v.1.15,2013-01-02 00:01:00,
2013-01-01 16:06:00,21.6,20.6,30.76,SSW,213,0.0,0.0,96,0.00,,,0.00,Wunderground v.1.15,2013-01-02 00:06:00,
2013-01-01 16:11:00,21.6,20.6,30.76,SSW,213,0.0,0.0,96,0.00,,,0.00,Wunderground v.1.15,2013-01-02 00:11:00,
2013-01-01 16:16:00,21.6,20.4,30.76,SSW,213,0.0,0.0,95,0.00,,,0.00,Wunderground v.1.15,2013-01-02 00:16:00,
2013-01-01 16:21:00,21.6,20.4,30.76,SSW,213,0.0,0.0,95,0.00,,,0.00,Wunderground v.1.15,2013-01-02 00:21:00,
2013-01-01 16:26:00,21.6,20.6,30.77,SSW,213,0.0,0.0,96,0.00,,,0.00,Wunderground v.1.15,2013-01-02 00:26:00,
2013-01-01 16:31:00,21.6,20.6,30.76,SSW,213,0.0,0.0,96,0.00,,,0.00,Wunderground v.1.15,2013-01-02 00:31:00,
2013-01-01 16:36:00,21.6,20.6,30.77,SSW,213,0.0,0.0,96,0.00,,,0.00,Wunderground v.1.15,2013-01-02 00:36:00,
2013-01-01 16:41:00,21.6,20.6,30.76,SSW,213,0.0,0.0,96,0.00,,,0.00,Wunderground v.1.15,2013-01-02 00:41:00,
2013-01-01 16:46:00,21.6,20.6,30.76,SSW,213,0.0,0.0,96,0.00,,,0.00,Wunderground v.1.15,2013-01-02 00:46:00,
2013-01-01 16:51:00,21.6,20.6,30.76,SSW,213,0.0,0.0,96,0.00,,,0.00,Wunderground v.1.15,2013-01-02 00:51:00,
2013-01-01 16:56:00,21.6,20.6,30.76,SSW,213,0.0,0.0,96,0.00,,,0.00,Wunderground v.1.15,2013-01-02 00:56:00,
2013-01-01 17:01:00,21.6,20.6,30.76,SSW,213,0.0,0.0,96,0.00,,,0.00,Wunderground v.1.15,2013-01-02 01:01:00,
2013-01-01 17:06:00,21.6,20.6,30.77,SSW,213,0.0,0.0,96,0.00,,,0.00,Wunderground v.1.15,2013-01-02 01:06:00,
2013-01-01 17:11:00,21.6,20.6,30.76,SSW,213,0.0,0.0,96,0.00,,,0.00,Wunderground v.1.15,2013-01-02 01:11:00,
2013-01-01 17:16:00,21.6,20.6,30.76,SSW,213,0.0,0.0,96,0.00,,,0.00,Wunderground v.1.15,2013-01-02 01:16:00,
2013-01-01 17:21:00,21.6,20.6,30.76,SSW,213,0.0,0.0,96,0.00,,,0.00,Wunderground v.1.15,2013-01-02 01:21:00,
2013-01-01 17:26:00,21.6,20.6,30.76,SSW,213,0.0,0.0,96,0.00,,,0.00,Wunderground v.1.15,2013-01-02 01:26:00,
2013-01-01 17:31:00,21.6,20.6,30.76,SSW,213,0.0,0.0,96,0.00,,,0.00,Wunderground v.1.15,2013-01-02 01:31:00,
2013-01-01 17:36:00,21.6,20.6,30.75,SSW,213,0.0,0.0,96,0.00,,,0.00,Wunderground v.1.15,2013-01-02 01:36:00,
2013-01-01 17:41:00,21.6,20.6,30.76,SSW,213,0.0,0.0,96,0.00,,,0.00,Wunderground v.1.15,2013-01-02 01:41:00,
2013-01-01 17:46:00,21.6,20.6,30.76,SSW,213,0.0,0.0,96,0.00,,,0.00,Wunderground v.1.15,2013-01-02 01:46:00,
2013-01-01 17:51:00,21.6,20.6,30.76,SSW,213,0.0,0.0,96,0.00,,,0.00,Wunderground v.1.15,2013-01-02 01:51:00,
2013-01-01 17:56:00,21.6,20.6,30.76,SSW,213,0.0,0.0,96,0.00,,,0.00,Wunderground v.1.15,2013-01-02 01:56:00,
2013-01-01 18:02:00,21.7,20.7,30.76,SSW,213,0.0,0.0,96,0.00,,,0.00,Wunderground v.1.15,2013-01-02 02:02:00,
2013-01-01 18:07:00,21.7,20.7,30.76,SSW,213,0.0,0.0,96,0.00,,,0.00,Wunderground v.1.15,2013-01-02 02:07:00,
2013-01-01 18:12:00,21.7,20.7,30.76,SSW,213,0.0,0.0,96,0.00,,,0.00,Wunderground v.1.15,2013-01-02 02:12:00,
2013-01-01 18:17:00,21.7,20.5,30.76,SSW,213,0.0,0.0,95,0.00,,,0.00,Wunderground v.1.15,2013-01-02 02:17:00,
2013-01-01 18:22:00,21.7,20.5,30.76,SSW,213,0.0,0.0,95,0.00,,,0.00,Wunderground v.1.15,2013-01-02 02:22:00,
2013-01-01 18:27:00,21.7,20.5,30.76,SSW,213,0.0,0.0,95,0.00,,,0.00,Wunderground v.1.15,2013-01-02 02:27:00,
2013-01-01 18:32:00,21.7,20.5,30.76,SSW,213,0.0,0.0,95,0.00,,,0.00,Wunderground v.1.15,2013-01-02 02:32:00,
2013-01-01 18:37:00,21.7,20.5,30.77,SSW,213,0.0,0.0,95,0.00,,,0.00,Wunderground v.1.15,2013-01-02 02:37:00,
2013-01-01 18:42:00,21.8,20.6,30.77,SSW,213,0.0,0.0,95,0.00,,,0.00,Wunderground v.1.15,2013-01-02 02:42:00,
2013-01-01 18:47:00,21.8,20.6,30.77,SSW,213,0.0,0.0,95,0.00,,,0.00,Wunderground v.1.15,2013-01-02 02:47:00,
2013-01-01 18:52:00,21.8,20.6,30.76,SSW,213,0.0,0.0,95,0.00,,,0.00,Wunderground v.1.15,2013-01-02 02:52:00,
2013-01-01 18:57:00,21.8,20.6,30.77,SSW,213,0.0,0.0,95,0.00,,,0.00,Wunderground v.1.15,2013-01-02 02:57:00,
2013-01-01 19:02:00,21.8,20.6,30.77,SSW,213,0.0,0.0,95,0.00,,,0.00,Wunderground v.1.15,2013-01-02 03:02:00,
2013-01-01 19:07:00,21.9,20.4,30.77,SSW,213,0.0,0.0,94,0.00,,,0.00,Wunderground v.1.15,2013-01-02 03:07:00,
2013-01-01 19:12:00,22.0,20.5,30.77,SSW,213,0.0,0.0,94,0.00,,,0.00,Wunderground v.1.15,2013-01-02 03:12:00,
2013-01-01 19:17:00,22.0,20.5,30.77,SSW,213,0.0,0.0,94,0.00,,,0.00,Wunderground v.1.15,2013-01-02 03:17:00,
2013-01-01 19:22:00,22.0,20.5,30.76,SSW,213,0.0,0.0,94,0.00,,,0.00,Wunderground v.1.15,2013-01-02 03:22:00,
2013-01-01 19:28:00,22.0,20.5,30.77,SSW,213,0.0,0.0,94,0.00,,,0.00,Wunderground v.1.15,2013-01-02 03:28:00,
2013-01-01 19:33:00,22.0,20.5,30.76,SSW,213,0.0,0.0,94,0.00,,,0.00,Wunderground v.1.15,2013-01-02 03:33:00,
2013-01-01 19:38:00,22.0,20.8,30.76,SSW,213,0.0,0.0,95,0.00,,,0.00,Wunderground v.1.15,2013-01-02 03:38:00,
2013-01-01 19:43:00,22.0,20.8,30.76,SSW,213,0.0,0.0,95,0.00,,,0.00,Wunderground v.1.15,2013-01-02 03:43:00,
2013-01-01 19:48:00,22.1,20.6,30.77,SSW,213,0.0,0.0,94,0.00,,,0.00,Wunderground v.1.15,2013-01-02 03:48:00,
2013-01-01 19:53:00,22.1,20.6,30.77,SSW,213,0.0,0.0,94,0.00,,,0.00,Wunderground v.1.15,2013-01-02 03:53:00,
2013-01-01 19:59:00,22.1,20.6,30.77,SSW,213,0.0,0.0,94,0.00,,,0.00,Wunderground v.1.15,2013-01-02 03:59:00,
2013-01-01 20:04:00,22.1,20.6,30.77,SSW,213,0.0,0.0,94,0.00,,,0.00,Wunderground v.1.15,2013-01-02 04:04:00,
2013-01-01 20:09:00,22.1,20.9,30.77,SSW,213,0.0,0.0,95,0.00,,,0.00,Wunderground v.1.15,2013-01-02 04:09:00,
2013-01-01 20:14:00,22.1,20.9,30.77,SSW,213,0.0,0.0,95,0.00,,,0.00,Wunderground v.1.15,2013-01-02 04:14:00,
2013-01-01 20:19:00,22.1,20.9,30.76,SSW,213,0.0,0.0,95,0.00,,,0.00,Wunderground v.1.15,2013-01-02 04:19:00,
2013-01-01 20:24:00,22.1,20.9,30.77,SSW,213,0.0,0.0,95,0.00,,,0.00,Wunderground v.1.15,2013-01-02 04:24:00,
2013-01-01 20:29:00,22.1,20.9,30.76,SSW,213,0.0,0.0,95,0.00,,,0.00,Wunderground v.1.15,2013-01-02 04:29:00,
2013-01-01 20:34:00,22.1,20.9,30.77,SSW,213,0.0,0.0,95,0.00,,,0.00,Wunderground v.1.15,2013-01-02 04:34:00,
2013-01-01 20:39:00,22.1,20.9,30.77,SSW,213,0.0,0.0,95,0.00,,,0.00,Wunderground v.1.15,2013-01-02 04:39:00,
2013-01-01 20:44:00,22.2,20.7,30.77,SSW,213,0.0,0.0,94,0.00,,,0.00,Wunderground v.1.15,2013-01-02 04:44:00,
2013-01-01 20:49:00,22.1,20.6,30.77,SSW,213,0.0,0.0,94,0.00,,,0.00,Wunderground v.1.15,2013-01-02 04:49:00,
2013-01-01 20:54:00,22.0,20.8,30.77,SSW,213,0.0,0.0,95,0.00,,,0.00,Wunderground v.1.15,2013-01-02 04:54:00,
2013-01-01 20:59:00,22.0,20.8,30.77,SSW,213,0.0,0.0,95,0.00,,,0.00,Wunderground v.1.15,2013-01-02 04:59:00,
2013-01-01 21:00:00,22.0,20.8,30.77,SSW,213,0.0,0.0,95,0.00,,,0.00,Wunderground v.1.15,2013-01-02 05:00:00,
2013-01-01 21:01:00,22.0,20.8,30.77,SSW,213,0.0,0.0,95,0.00,,,0.00,Wunderground v.1.15,2013-01-02 05:01:00,
2013-01-01 21:06:00,21.9,20.7,30.77,SSW,213,0.0,0.0,95,0.00,,,0.00,Wunderground v.1.15,2013-01-02 05:06:00,
2013-01-01 21:11:00,21.9,20.7,30.77,SSW,213,0.0,0.0,95,0.00,,,0.00,Wunderground v.1.15,2013-01-02 05:11:00,
2013-01-01 21:16:00,21.9,20.7,30.77,SSW,213,0.0,0.0,95,0.00,,,0.00,Wunderground v.1.15,2013-01-02 05:16:00,
2013-01-01 21:21:00,21.9,20.7,30.77,SSW,213,0.0,0.0,95,0.00,,,0.00,Wunderground v.1.15,2013-01-02 05:21:00,
2013-01-01 21:26:00,21.9,20.7,30.77,SSW,213,0.0,0.0,95,0.00,,,0.00,Wunderground v.1.15,2013-01-02 05:26:00,
2013-01-01 21:31:00,21.8,20.6,30.77,SSW,213,0.0,0.0,95,0.00,,,0.00,Wunderground v.1.15,2013-01-02 05:31:00,
2013-01-01 21:36:00,21.8,20.6,30.77,SSW,213,0.0,0.0,95,0.00,,,0.00,Wunderground v.1.15,2013-01-02 05:36:00,
2013-01-01 21:41:00,21.8,20.6,30.77,SSW,213,0.0,0.0,95,0.00,,,0.00,Wunderground v.1.15,2013-01-02 05:41:00,
2013-01-01 21:47:00,21.8,20.8,30.77,SSW,213,0.0,0.0,96,0.00,,,0.00,Wunderground v.1.15,2013-01-02 05:47:00,
2013-01-01 21:51:00,21.8,20.8,30.77,SSW,213,0.0,0.0,96,0.00,,,0.00,Wunderground v.1.15,2013-01-02 05:51:00,
2013-01-01 21:57:00,21.8,20.8,30.77,SSW,213,0.0,0.0,96,0.00,,,0.00,Wunderground v.1.15,2013-01-02 05:57:00,
2013-01-01 22:02:00,21.8,20.8,30.77,SSW,213,0.0,0.0,96,0.00,,,0.00,Wunderground v.1.15,2013-01-02 06:02:00,
2013-01-01 22:07:00,21.8,20.8,30.77,SSW,213,0.0,0.0,96,0.00,,,0.00,Wunderground v.1.15,2013-01-02 06:07:00,
2013-01-01 22:12:00,21.8,20.8,30.77,SSW,213,0.0,0.0,96,0.00,,,0.00,Wunderground v.1.15,2013-01-02 06:12:00,
2013-01-01 22:17:00,21.8,20.8,30.77,SSW,213,0.0,0.0,96,0.00,,,0.00,Wunderground v.1.15,2013-01-02 06:17:00,
2013-01-01 22:22:00,21.8,20.8,30.77,SSW,213,0.0,0.0,96,0.00,,,0.00,Wunderground v.1.15,2013-01-02 06:22:00,
2013-01-01 22:27:00,21.8,20.8,30.77,SSW,213,0.0,0.0,96,0.00,,,0.00,Wunderground v.1.15,2013-01-02 06:27:00,
2013-01-01 22:32:00,21.8,20.8,30.77,SSW,213,0.0,0.0,96,0.00,,,0.00,Wunderground v.1.15,2013-01-02 06:32:00,
2013-01-01 22:37:00,21.8,20.8,30.77,SSW,213,0.0,0.0,96,0.00,,,0.00,Wunderground v.1.15,2013-01-02 06:37:00,
2013-01-01 22:42:00,21.8,20.8,30.77,SSW,213,0.0,0.0,96,0.00,,,0.00,Wunderground v.1.15,2013-01-02 06:42:00,
2013-01-01 22:47:00,21.9,20.7,30.77,SSW,213,0.0,0.0,95,0.00,,,0.00,Wunderground v.1.15,2013-01-02 06:47:00,
2013-01-01 22:52:00,21.9,20.7,30.77,SSW,213,0.0,0.0,95,0.00,,,0.00,Wunderground v.1.15,2013-01-02 06:52:00,
2013-01-01 22:57:00,21.8,20.6,30.77,SSW,213,0.0,0.0,95,0.00,,,0.00,Wunderground v.1.15,2013-01-02 06:57:00,
2013-01-01 23:02:00,21.8,20.6,30.77,SSW,213,0.0,0.0,95,0.00,,,0.00,Wunderground v.1.15,2013-01-02 07:02:00,
2013-01-01 23:08:00,21.9,20.7,30.77,SSW,213,0.0,0.0,95,0.00,,,0.00,Wunderground v.1.15,2013-01-02 07:08:00,
2013-01-01 23:13:00,21.8,20.6,30.77,SSW,213,0.0,0.0,95,0.00,,,0.00,Wunderground v.1.15,2013-01-02 07:13:00,
2013-01-01 23:19:00,21.8,20.6,30.77,SSW,213,0.0,0.0,95,0.00,,,0.00,Wunderground v.1.15,2013-01-02 07:19:00,
2013-01-01 23:24:00,21.8,20.6,30.77,SSW,213,0.0,0.0,95,0.00,,,0.00,Wunderground v.1.15,2013-01-02 07:24:00,
2013-01-01 23:29:00,21.9,20.7,30.77,SSW,213,0.0,0.0,95,0.00,,,0.00,Wunderground v.1.15,2013-01-02 07:29:00,
2013-01-01 23:34:00,21.9,20.7,30.77,SSW,213,0.0,0.0,95,0.00,,,0.00,Wunderground v.1.15,2013-01-02 07:34:00,
2013-01-01 23:39:00,21.9,20.7,30.78,SSW,213,0.0,0.0,95,0.00,,,0.00,Wunderground v.1.15,2013-01-02 07:39:00,
2013-01-01 23:44:00,21.9,20.7,30.78,SSW,213,0.0,0.0,95,0.00,,,0.00,Wunderground v.1.15,2013-01-02 07:44:00,
2013-01-01 23:49:00,21.8,20.6,30.77,SSW,213,0.0,0.0,95,0.00,,,0.00,Wunderground v.1.15,2013-01-02 07:49:00,
2013-01-01 23:54:00,21.8,20.6,30.77,SSW,213,0.0,0.0,95,0.00,,,0.00,Wunderground v.1.15,2013-01-02 07:54:00,
2013-01-01 23:59:00,21.8,20.6,30.77,SSW,213,0.0,0.0,95,0.00,,,0.00,Wunderground v.1.15,2013-01-02 07:59:00,